Total_Precipitation_Accumulation
0.42 0.42 0.42 0.39 0.35 0.32 0.31 0.27 0.22 0.20 0.17 0.13 0.13 0.13 0.18 0.24 0.36 0.57 0.68 0.65 0.55 0.51 0.54 0.62 0.75 0.84 1.01 0.93 0.81 0.70 0.63 0.58 0.52 0.42 0.29 0.18 0.18 0.17 0.17 0.07 0.02 0.01 0.01
0.51 0.49 0.44 0.40 0.36 0.34 0.31 0.25 0.20 0.15 0.11 0.12 0.13 0.11 0.14 0.16 0.21 0.33 0.50 0.60 0.59 0.52 0.49 0.54 0.67 0.78 0.95 1.06 1.03 0.92 0.83 0.75 0.67 0.59 0.45 0.33 0.26 0.23 0.24 0.18 0.09 0.04 0.02
0.62 0.57 0.49 0.43 0.37 0.36 0.30 0.23 0.19 0.13 0.11 0.12 0.14 0.14 0.16 0.17 0.15 0.18 0.24 0.33 0.42 0.45 0.44 0.42 0.44 0.55 0.77 0.96 1.03 1.04 1.04 0.96 0.87 0.76 0.60 0.49 0.39 0.29 0.25 0.22 0.15 0.12 0.09
0.82 0.75 0.66 0.53 0.43 0.38 0.30 0.23 0.19 0.15 0.13 0.12 0.13 0.19 0.25 0.25 0.21 0.19 0.19 0.18 0.18 0.20 0.27 0.32 0.33 0.38 0.50 0.61 0.74 0.91 1.13 1.12 1.05 0.97 0.78 0.57 0.46 0.35 0.27 0.24 0.22 0.19 0.16
0.90 0.92 0.80 0.61 0.47 0.39 0.33 0.26 0.20 0.18 0.16 0.15 0.16 0.17 0.23 0.27 0.28 0.30 0.22 0.14 0.12 0.09 0.09 0.11 0.16 0.25 0.33 0.38 0.45 0.66 0.93 1.08 1.07 1.02 0.93 0.73 0.50 0.39 0.27 0.23 0.25 0.28 0.25
0.92 0.91 0.69 0.52 0.41 0.36 0.35 0.33 0.27 0.23 0.21 0.23 0.23 0.24 0.29 0.29 0.36 0.34 0.21 0.15 0.14 0.13 0.10 0.06 0.06 0.10 0.17 0.21 0.28 0.36 0.53 0.71 0.90 1.02 1.00 0.85 0.67 0.53 0.44 0.37 0.31 0.29 0.27
0.63 0.59 0.49 0.38 0.35 0.39 0.41 0.34 0.31 0.29 0.27 0.30 0.30 0.29 0.31 0.38 0.33 0.19 0.17 0.16 0.19 0.18 0.15 0.14 0.11 0.06 0.07 0.09 0.19 0.23 0.25 0.31 0.46 0.69 0.84 0.90 0.93 0.73 0.59 0.47 0.38 0.35 0.34
0.40 0.39 0.34 0.30 0.31 0.33 0.35 0.33 0.39 0.43 0.40 0.39 0.40 0.39 0.36 0.38 0.30 0.18 0.18 0.19 0.24 0.23 0.20 0.16 0.17 0.13 0.13 0.13 0.13 0.15 0.17 0.21 0.31 0.32 0.46 0.73 0.81 0.79 0.68 0.64 0.66 0.57 0.45
0.12 0.13 0.12 0.11 0.13 0.14 0.15 0.22 0.32 0.39 0.41 0.43 0.45 0.44 0.38 0.34 0.30 0.19 0.18 0.22 0.26 0.28 0.22 0.18 0.18 0.19 0.25 0.22 0.19 0.28 0.33 0.33 0.41 0.43 0.44 0.47 0.49 0.50 0.53 0.54 0.53 0.51 0.48
0.01 0.01 0.01 0.01 0.02 0.03 0.05 0.08 0.15 0.19 0.23 0.31 0.33 0.36 0.38 0.36 0.40 0.24 0.21 0.25 0.29 0.31 0.28 0.26 0.33 0.28 0.30 0.25 0.19 0.32 0.35 0.34 0.35 0.39 0.36 0.32 0.28 0.29 0.30 0.34 0.44 0.44 0.41
0.00 0.00 0.00 0.00 0.00 0.01 0.01 0.03 0.06 0.07 0.12 0.15 0.20 0.25 0.32 0.37 0.43 0.36 0.33 0.32 0.32 0.37 0.37 0.34 0.31 0.36 0.22 0.15 0.13 0.17 0.27 0.24 0.23 0.30 0.34 0.31 0.27 0.25 0.25 0.27 0.35 0.40 0.43
0.00 0.00 0.00 0.00 0.00 0.00 0.01 0.01 0.02 0.02 0.05 0.08 0.10 0.13 0.20 0.25 0.31 0.33 0.29 0.29 0.32 0.37 0.42 0.35 0.34 0.36 0.19 0.11 0.09 0.14 0.18 0.16 0.19 0.26 0.29 0.29 0.26 0.23 0.21 0.22 0.23 0.24 0.27
0.00 0.00 0.00 0.00 0.00 0.01 0.01 0.01 0.02 0.03 0.04 0.05 0.08 0.13 0.19 0.25 0.26 0.19 0.16 0.17 0.20 0.30 0.33 0.35 0.35 0.28 0.17 0.12 0.11 0.13 0.14 0.16 0.26 0.30 0.28 0.25 0.23 0.22 0.19 0.18 0.19 0.21 0.23
0.00 0.00 0.00 0.01 0.01 0.01 0.02 0.03 0.03 0.03 0.05 0.08 0.13 0.18 0.21 0.24 0.25 0.21 0.21 0.21 0.18 0.22 0.23 0.23 0.23 0.19 0.18 0.17 0.14 0.14 0.14 0.17 0.22 0.24 0.23 0.22 0.22 0.23 0.24 0.23 0.26 0.27 0.31
0.00 0.00 0.00 0.00 0.01 0.01 0.01 0.01 0.02 0.02 0.04 0.10 0.16 0.21 0.21 0.20 0.14 0.13 0.22 0.31 0.35 0.40 0.45 0.38 0.36 0.32 0.29 0.26 0.23 0.20 0.19 0.22 0.20 0.19 0.18 0.17 0.17 0.18 0.19 0.19 0.21 0.23 0.27
0.00 0.00 0.00 0.00 0.01 0.01 0.01 0.00 0.01 0.02 0.05 0.06 0.06 0.08 0.10 0.09 0.08 0.10 0.15 0.25 0.32 0.40 0.53 0.57 0.57 0.55 0.50 0.43 0.33 0.25 0.20 0.19 0.20 0.20 0.20 0.20 0.18 0.17 0.17 0.15 0.15 0.16 0.18
0.00 0.00 0.00 0.00 0.01 0.01 0.02 0.04 0.05 0.04 0.02 0.01 0.01 0.02 0.08 0.15 0.18 0.22 0.24 0.26 0.28 0.37 0.55 0.63 0.63 0.59 0.53 0.46 0.39 0.30 0.21 0.18 0.20 0.19 0.18 0.19 0.20 0.19 0.16 0.13 0.10 0.10 0.11
0.00 0.00 0.00 0.03 0.05 0.05 0.05 0.09 0.13 0.17 0.14 0.07 0.01 0.01 0.04 0.11 0.15 0.17 0.24 0.35 0.37 0.43 0.50 0.51 0.50 0.39 0.30 0.25 0.21 0.16 0.12 0.11 0.12 0.11 0.10 0.10 0.11 0.13 0.13 0.13 0.12 0.11 0.11
0.00 0.01 0.03 0.07 0.09 0.07 0.08 0.13 0.14 0.10 0.08 0.07 0.04 0.02 0.01 0.04 0.06 0.08 0.16 0.33 0.34 0.28 0.23 0.19 0.17 0.14 0.10 0.09 0.08 0.07 0.05 0.05 0.04 0.03 0.03 0.03 0.04 0.05 0.07 0.09 0.11 0.13 0.16
0.00 0.00 0.02 0.07 0.09 0.07 0.07 0.07 0.07 0.05 0.03 0.04 0.04 0.04 0.04 0.05 0.07 0.07 0.09 0.13 0.12 0.08 0.06 0.06 0.05 0.04 0.04 0.04 0.03 0.03 0.03 0.03 0.03 0.02 0.02 0.02 0.02 0.03 0.05 0.08 0.10 0.13 0.14
0.00 0.00 0.00 0.03 0.05 0.04 0.03 0.03 0.03 0.02 0.02 0.03 0.02 0.01 0.03 0.07 0.08 0.07 0.06 0.05 0.04 0.03 0.04 0.05 0.03 0.02 0.02 0.02 0.03 0.03 0.03 0.03 0.03 0.03 0.03 0.03 0.03 0.03 0.05 0.08 0.12 0.14 0.15
0.00 0.01 0.02 0.04 0.04 0.02 0.02 0.03 0.05 0.04 0.02 0.03 0.03 0.02 0.03 0.06 0.07 0.05 0.05 0.05 0.03 0.03 0.04 0.06 0.06 0.04 0.03 0.03 0.03 0.02 0.03 0.03 0.03 0.03 0.03 0.03 0.03 0.03 0.04 0.06 0.09 0.13 0.16
0.00 0.00 0.01 0.03 0.03 0.01 0.01 0.03 0.04 0.04 0.02 0.02 0.03 0.04 0.04 0.06 0.06 0.06 0.07 0.06 0.07 0.07 0.06 0.06 0.08 0.07 0.04 0.03 0.03 0.03 0.03 0.03 0.03 0.04 0.04 0.04 0.04 0.05 0.05 0.05 0.06 0.08 0.11
0.00 0.00 0.01 0.02 0.02 0.01 0.02 0.03 0.04 0.03 0.03 0.04 0.05 0.05 0.05 0.05 0.04 0.04 0.04 0.05 0.07 0.08 0.06 0.04 0.04 0.03 0.02 0.03 0.03 0.03 0.05 0.05 0.03 0.03 0.04 0.05 0.06 0.07 0.09 0.12 0.15 0.16 0.17
0.00 0.00 0.01 0.02 0.02 0.01 0.01 0.02 0.03 0.03 0.03 0.04 0.04 0.03 0.03 0.04 0.03 0.02 0.04 0.04 0.05 0.06 0.04 0.04 0.04 0.02 0.01 0.01 0.02 0.03 0.06 0.07 0.07 0.06 0.05 0.05 0.07 0.10 0.14 0.21 0.26 0.28 0.29
0.00 0.00 0.00 0.01 0.01 0.01 0.01 0.02 0.03 0.02 0.02 0.02 0.02 0.02 0.03 0.03 0.02 0.01 0.02 0.02 0.03 0.04 0.03 0.03 0.04 0.02 0.01 0.01 0.02 0.04 0.07 0.07 0.06 0.05 0.02 0.02 0.04 0.07 0.08 0.11 0.15 0.19 0.23